NOAA 17 DEB, 48747

Orbit data source: Space-Track

NOAA 17 DEB, 48747 is space debris in SSO originally from a launch on Mon, 24 Jun 2002 UTC launched from the Air Force Western Test Range (AFWTR). Debris objects in space refer to the collection of defunct objects orbiting the Earth. Examples of debris include non-operational satellites, rocket bodies, and fragments generated from explosions, collisions, or faulty payload assembly.

Loading next visibility...
Identifier
48747, 2002-032CG
Orbit
SSO
Country
Flag of USUS
Related business
Manufacturer
Unknown
Mission
Spacecraft
Bus & Motor
Unknown
Mass
Unknown
Launch date (UTC)
2002-06-24 (24 years ago)
Launch vehicle
Unknown
Launch site
Air Force Western Test Range (AFWTR)
Object type
Payload
Rocket body
Debris
Shape & HBR
Unknown shape, 0.1 m
Radar Cross Section
Medium (>0.1 m² and <1 m²)

Expand to show TLE details & history
Last TLE update: 2 days ago

TLE from 2 days ago
0 NOAA 17 DEB
1 48747U 02032CG  26171.31216009  .00027192  00000-0  25185-2 0  9990
2 48747  99.0263 296.0535 0016222 353.6831   6.4178 14.94367574277612
Epoch: 2026-06-20T07:29Z
TLE epoch observation values (Epoch: 2026-06-20T07:29:30.631Z)
Latitude
-0.00006°
Longitude
-84.85271°
Altitude
576.115 km
Speed
7.579 km/s
True Right ascension
19h 44m 12s
True Declination
0° 00' 00"
Sunlit
Object was in full shadow at epoch
Visualization orbit readout
Latitude
Unknown
Longitude
Unknown
Altitude
Unknown
Speed
Unknown
Apparent Right ascension
Unknown
Apparent Declination
Unknown
Sunlit
N/A
Visualization observer readout
Local Sidereal Time
21:35:43
Azimuth
Unknown
Elevation
Unknown
Doppler factor
Unknown
Orbital elements
Apogee altitude
592.702 km
Perigee altitude
570.123 km
Semi-major axis
6,959.549 km
Eccentricity
0.00162
Inclination
99.0263°
RAAN
296.0535°
Arg. of periapsis
353.6831°
True anomaly
6.43862°
Mean anomaly
6.4178°
Eccentric anomaly
6.42821°
Mean motion
3.73828 °/min
Orbital period
96.3 mins
BSTAR
0.0025185
Loading maneuver chart data...
Computing Atmospheric mass density...

Documentation

Showing up to 5 results
|